IW1RID-3 Weather Reports


time (UTC)temp
C
wind
direction
speed
KPH
gust
KPH
rain 1hr
cm
rain 24hr
cm
rain mn
cm
humidity
%
barometer
mb
20260503210703 15 0.0 0.0 0.00 0.00 0.00 75 1076.4
20260503204658 15 0.0 0.0 0.00 0.00 0.00 76 1076.5
20260503202654 15 0.0 0.0 0.00 0.00 0.00 73 1076.8
20260503200649 16 0.0 0.0 0.00 0.00 0.00 72 1076.8
20260503194644 16 0.0 0.0 0.00 0.00 0.00 71 1076.7
20260503192639 16 0.0 0.0 0.00 0.00 0.00 71 1076.5
20260503190634 16 0.0 0.0 0.00 0.00 0.00 71 1076.3
20260503184628 16 0.0 0.0 0.00 0.00 0.00 70 1076.1
20260503184422 16 0.0 0.0 0.00 0.00 0.00 70 1076.1
20260503182417 17 0.0 0.0 0.00 0.00 0.00 69 1076.1
20260503180412 17 0.0 0.0 0.00 0.00 0.00 66 1076.1
20260503174407 17 0.0 0.0 0.00 0.00 0.00 65 1076.1
20260503172403 17 0.0 0.0 0.00 0.00 0.00 62 1076.2
20260503170357 18 0.0 0.0 0.00 0.00 0.00 61 1076.2
20260503150327 21 0.0 0.0 0.00 0.00 0.00 53 1076.6
20260503140313 19 0.0 0.0 0.00 0.00 0.00 57 1077.5
20260503130258 19 0.0 0.0 0.00 0.00 0.00 57 1078.2
20260503110228 20 0.0 0.0 0.00 0.00 0.00 56 1078.5
20260503100214 18 0.0 0.0 0.00 0.00 0.00 62 1079.2
20260503090200 18 0.0 0.0 0.00 0.00 0.00 58 1078.8
20260503080145 17 0.0 0.0 0.00 0.00 0.00 55 1078.8
20260503072133 15 0.0 0.0 0.00 0.00 0.00 47 1078.5
20260503070128 14 0.0 0.0 0.00 0.00 0.00 51 1078.6
20260503060113 12 0.0 0.0 0.00 0.00 0.00 53 1078.6
20260503054108 12 0.0 0.0 0.00 0.00 0.00 54 1078.4
20260503052104 11 0.0 0.0 0.00 0.00 0.00 54 1078.7
20260503050059 11 0.0 0.0 0.00 0.00 0.00 56 1078.7
20260503044053 10 0.0 0.0 0.00 0.00 0.00 56 1078.6
20260503042049 11 0.0 0.0 0.00 0.00 0.00 51 1078.4
20260503040045 11 0.0 0.0 0.00 0.00 0.00 51 1078.5
20260503034040 10 0.0 0.0 0.00 0.00 0.00 53 1078.5
20260503032035 10 0.0 0.0 0.00 0.00 0.00 55 1078.6
20260503030030 11 0.0 0.0 0.00 0.00 0.00 54 1078.6
20260503024025 11 0.0 0.0 0.00 0.00 0.00 51 1078.7
20260503022020 11 0.0 0.0 0.00 0.00 0.00 48 1078.6
20260503020017 11 0.0 0.0 0.00 0.00 0.00 50 1078.7
20260503014011 10 0.0 0.0 0.00 0.00 0.00 55 1079.0
20260503012007 11 0.0 0.0 0.00 0.00 0.00 52 1079.0
20260503010002 11 0.0 0.0 0.00 0.00 0.00 50 1079.1
20260503003957 11 0.0 0.0 0.00 0.00 0.00 54 1079.3
20260503001952 11 0.0 0.0 0.00 0.00 0.00 54 1079.3
20260502235948 12 0.0 0.0 0.00 0.00 0.00 52 1079.3
20260502233944 11 0.0 0.0 0.00 0.00 0.00 57 1079.7
20260502231939 11 0.0 0.0 0.00 0.00 0.00 57 1079.9
20260502225934 11 0.0 0.0 0.00 0.00 0.00 58 1080.0
20260502223929 11 0.0 0.0 0.00 0.00 0.00 59 1080.1
20260502221924 12 0.0 0.0 0.00 0.00 0.00 57 1080.2
20260502215920 12 0.0 0.0 0.00 0.00 0.00 56 1080.2
20260502213915 12 0.0 0.0 0.00 0.00 0.00 56 1080.3